SCP
0 0 0 0 0 0 0 0 0 0 0 0 0 0 0 0 0 0 0 0 0 0 0 0 0 0 0 0 0 0 0 0 0 0 0 0 0 0 0 0 0 0 0
0 0 0 0 0 0 0 0 0 0 0 0 0 0 0 0 0 0 0 0 0 0 0 0 0 0 0 0 0 0 0 0 0 0 0 0 0 0 0 0 0 0 0
0 0 0 0 0 0 0 0 0 0 0 0 0 0 0 0 0 0 0 0 0 0 0 0 0 0 0 0 0 0 0 0 0 0 0 0 0 0 0 0 0 0 0
0 0 0 0 0 0 0 0 0 0 0 0 0 0 0 0 0 0 0 0 0 0 0 0 0 0 0 0 0 0 0 0 0 0 0 0 0 0 0 0 0 0 0
0 0 0 0 0 0 0 0 0 0 0 0 0 0 0 0 0 0 0 0 0 0 0 0 0 0 0 0 0 0 0 0 0 0 0 0 0 0 0 0 0 0 0
0 0 0 0 0 0 0 0 0 0 0 0 0 0 0 0 0 0 0 0 0 0 0 0 0 0 0 0 0 0 0 0 0 0 0 0 0 0 0 0 0 0 0
0 0 0 0 0 0 0 0 0 0 0 0 0 0 0 0 0 0 0 0 0 0 0 0 0 0 0 0 0 0 0 0 0 0 0 0 0 0 0 0 0 0 0
0 0 0 0 0 0 0 0 0 0 0 0 0 0 0 0 0 0 0 0 0 0 0 0 0 0 0 0 0 0 0 0 0 0 0 0 0 0 0 0 0 0 0
0 0 0 0 0 0 0 0 0 0 0 0 0 0 0 0 0 0 0 0 0 0 0 0 0 0 0 0 0 0 0 0 0 0 0 0 0 0 0 0 0 0 0
0 0 0 0 0 0 0 0 0 0 0 0 0 0 0 0 0 0 0 0 0 0 0 0 0 0 0 0 0 0 0 0 0 0 0 0 0 0 0 0 0 0 0
0 0 0 0 0 0 0 0 0 0 0 0 0 0 0 0 0 0 0 0 0 0 0 0 0 0 0 0 0 0 0 0 0 0 0 0 0 0 0 0 0 0 0
0 0 0 0 0 0 0 0 0 0 0 0 0 0 0 0 0 0 0 0 0 0 0 0 0 0 0 0 0 0 0 0 0 0 0 0 0 0 0 0 0 0 0
0 0 0 0 0 0 0 0 0 0 0 0 0 0 0 0 0 0 0 0 0 0 0 0 0 0 0 0 0 0 0 0 0 0 0 0 0 0 0 0 0 0 0
0 0 0 0 0 0 0 0 0 0 0 0 0 0 0 0 0 0 0 0 0 0 0 0 0 0 0 0 0 0 0 0 0 0 0 0 0 0 0 0 0 0 0
0 0 0 0 0 0 0 0 0 0 0 0 0 0 0 0 0 0 0 0 0 0 0 0 0 0 0 0 0 0 0 0 0 0 0 0 0 0 0 0 0 0 0
0 0 0 0 0 0 0 0 0 0 0 0 0 0 0 0 0 0 0 0 0 0 0 0 0 0 0 0 0 0 0 0 0 0 0 0 0 0 0 0 0 0 0
0 0 0 0 0 0 0 0 0 0 0 0 0 0 0 0 0 0 0 0 0 0 0 0 0 0 0 0 0 0 0 0 0 0 0 0 0 0 0 0 0 0 0
0 0 0 0 0 0 0 0 0 0 0 0 0 0 0 0 0 0 0 0 0 0 0 0 0 0 0 0 0 0 0 0 0 0 0 0 0 0 0 0 0 0 0
0 0 0 0 0 0 0 0 0 0 0 0 0 0 0 0 0 0 0 0 0 0 0 0 0 0 0 0 0 0 0 0 0 0 0 0 0 0 0 0 0 0 0
0 0 0 0 0 0 0 0 0 0 0 0 0 0 0 0 0 0 0 0 0 0 0 0 0 0 0 0 0 0 0 0 0 0 0 0 0 0 0 0 0 0 0
0 0 0 0 0 0 0 0 0 0 0 0 0 0 0 0 0 0 0 0 0 0 0 0 0 0 0 0 0 0 0 0 0 0 0 0 0 0 0 0 0 0 0
0 0 0 0 0 0 0 0 0 0 0 0 0 0 0 0 0 0 0 0 0 0 0 0 0 0 0 0 0 0 0 0 0 0 0 0 0 0 0 0 0 0 0
0 0 0 0 0 0 0 0 0 0 0 0 0 0 0 0 0 0 0 0 0 0 0 0 0 0 0 0 0 0 0 0 0 0 0 0 0 0 0 0 0 0 0
0 0 0 0 0 0 0 0 0 0 0 0 0 0 0 0 0 0 0 0 0 0 0 0 0 0 0 0 0 0 0 0 0 0 0 0 0 0 0 0 0 0 0
0 0 0 0 0 0 0 0 0 0 0 0 0 0 0 0 0 0 0 0 0 0 0 0 0 0 0 0 0 0 0 0 0 0 0 0 0 0 0 0 0 0 0
0 0 0 0 0 0 0 0 0 0 0 0 0 0 0 0 0 0 0 0 0 0 0 0 0 0 0 0 0 0 0 0 0 0 0 0 0 0 0 0 0 0 0
Wind_Speed
8 7 6 4 3 1 1 2 3 4 5 6 7 8 8 9 9 9 10 11 12 12 12 13 13 13 11 11 11 12 13 12 14 14 13 15 17 16 13 13 13 13 12
7 6 5 3 1 2 2 3 4 5 7 8 8 9 10 10 10 11 12 12 13 14 14 14 15 12 14 13 12 14 13 12 14 16 14 14 16 15 14 14 13 12 12
7 6 4 2 1 2 3 4 6 7 8 9 10 11 11 11 11 11 12 13 13 14 14 14 15 15 15 13 14 13 11 12 12 13 13 12 12 12 13 14 14 11 12
6 4 3 1 1 3 5 6 7 8 10 10 11 12 12 12 12 11 12 13 13 14 14 14 15 15 15 15 12 13 12 12 12 12 12 12 11 13 12 11 10 9 9
4 3 2 1 2 4 6 7 8 9 10 9 10 10 10 9 7 10 12 14 15 15 15 15 15 16 18 15 12 13 13 11 11 11 12 12 12 11 10 9 9 9 10
3 1 1 1 4 5 6 7 7 7 8 8 8 9 9 6 8 9 13 15 15 15 14 14 14 15 16 17 19 20 18 16 14 12 12 13 15 14 11 9 8 8 7
2 0 1 3 4 5 6 6 6 7 7 7 8 8 9 5 5 8 13 15 15 13 13 13 12 12 15 14 15 17 18 21 22 17 16 17 16 14 12 11 9 9 7
1 1 3 4 4 4 5 6 6 6 7 7 7 9 9 6 3 8 15 15 13 13 13 14 14 15 14 14 14 14 16 16 17 14 12 14 14 13 12 11 9 6 3
1 3 4 4 5 5 5 6 6 7 7 8 7 8 9 8 5 8 14 12 11 14 14 15 16 15 14 14 15 15 16 15 12 11 13 13 13 13 10 5 4 4 3
4 5 5 5 5 5 6 6 6 6 7 8 8 8 9 9 7 9 12 10 11 11 12 14 16 15 15 16 15 13 14 12 9 7 5 5 5 5 4 1 1 2 1
5 6 6 5 5 5 5 6 6 7 7 7 8 8 8 9 10 7 11 11 11 11 11 11 10 13 16 17 15 10 11 9 6 3 2 3 4 4 6 6 5 3 2
5 5 5 4 4 4 5 5 6 7 7 7 8 9 8 8 10 11 14 15 15 13 11 10 11 16 17 14 8 5 5 3 0 2 2 3 4 5 6 7 8 8 7
5 5 4 4 4 5 5 5 5 6 7 7 8 9 9 9 9 11 14 16 17 13 10 15 17 16 12 7 9 9 6 4 3 4 5 5 5 5 5 5 6 8 10
5 4 4 4 4 5 5 6 6 6 7 7 8 9 9 9 9 10 11 10 12 11 10 12 13 10 7 7 7 7 6 5 4 5 5 5 5 5 6 5 5 6 7
5 4 4 4 5 4 5 6 6 7 6 7 7 8 8 9 12 17 12 10 10 11 11 7 6 6 6 6 5 5 5 5 6 6 6 6 6 6 6 6 6 7 8
5 5 4 4 5 6 5 3 1 2 3 5 7 8 8 10 16 17 18 17 16 17 10 7 7 6 6 6 6 6 6 6 6 6 6 6 6 6 7 7 7 8 8
7 6 5 6 6 6 6 6 6 3 2 3 6 11 13 15 15 17 18 16 14 14 8 8 7 7 6 6 6 6 7 7 6 7 7 7 7 7 6 7 7 8 9
7 6 6 7 7 6 6 6 6 7 8 8 7 10 14 15 14 16 17 13 10 10 9 9 8 7 6 6 6 6 6 7 7 7 7 7 7 6 7 7 8 10 10
9 7 7 7 6 6 5 5 6 7 7 8 8 10 13 13 11 14 13 10 9 9 9 9 8 7 6 6 6 6 6 6 7 6 6 7 6 6 7 8 9 11 11
8 7 7 6 6 6 6 6 6 6 7 7 7 9 11 10 9 11 10 10 9 9 9 9 8 8 7 6 6 6 6 6 6 6 6 6 6 6 7 9 9 10 10
6 5 1 6 7 7 6 6 6 6 7 7 7 9 13 9 9 10 9 9 9 9 9 9 8 8 8 6 6 6 7 6 6 6 6 6 6 7 7 8 9 9 9
5 6 7 7 7 7 6 6 6 7 7 8 7 8 10 8 8 8 9 9 9 8 8 8 7 7 7 7 6 6 5 5 5 5 6 6 6 7 7 8 8 8 9
6 6 7 7 7 6 6 8 8 8 8 8 8 8 8 8 8 8 8 9 8 8 8 8 8 8 8 7 6 6 5 4 4 4 4 5 6 7 8 9 10 10 10
6 7 7 7 7 7 8 8 8 8 9 8 8 8 8 8 8 9 9 8 8 8 8 8 8 11 13 9 6 6 6 6 4 2 4 5 6 7 8 9 10 12 11
7 7 7 8 8 7 8 8 9 9 9 9 9 9 9 9 10 10 9 9 9 9 11 10 8 9 11 12 10 8 8 8 7 5 4 5 7 8 8 9 9 9 10
7 8 7 7 8 8 8 8 8 9 8 8 9 9 10 10 10 10 10 10 9 9 10 8 11 12 13 10 11 10 9 9 9 8 4 5 7 7 7 7 10 9 9
Wind_Direction
132 124 116 112 109 112 257 273 280 286 289 284 289 291 291 290 290 288 289 294 291 292 291 290 291 292 291 291 290 285 280 277 278 280 279 280 279 277 279 277 276 275 269
132 126 121 123 150 246 263 280 277 276 281 286 288 288 288 289 290 289 291 295 296 296 297 297 297 298 294 291 287 284 285 285 280 281 279 278 277 279 279 279 278 275 276
131 131 132 161 214 266 279 279 281 281 283 287 288 288 289 290 291 292 295 298 300 301 302 301 300 298 293 290 289 287 286 281 276 278 281 281 279 276 277 276 277 277 279
126 125 131 172 257 278 284 287 287 288 289 291 292 294 297 299 299 305 310 308 305 303 301 298 295 293 291 291 289 284 280 278 277 278 280 281 280 278 276 278 280 282 284
121 128 141 188 262 281 291 296 298 299 300 305 307 309 312 310 345 346 324 311 309 305 302 299 297 298 293 287 283 283 283 281 280 280 280 281 280 280 279 282 284 288 286
117 140 140 283 291 300 306 311 317 324 331 333 332 327 324 345 42 356 324 313 309 306 306 304 301 293 291 288 281 279 280 281 281 280 280 280 281 283 284 282 279 279 279
134 164 325 313 317 327 337 349 356 354 352 343 338 332 330 9 48 340 325 311 305 306 304 299 295 293 292 288 288 286 281 275 272 274 276 278 283 285 284 279 270 269 266
137 335 341 342 351 12 19 22 8 356 348 341 337 339 332 352 40 330 324 308 308 305 302 297 293 291 290 290 290 286 281 277 274 273 274 278 280 281 274 269 269 266 253
36 16 18 17 31 37 34 20 6 351 347 337 348 344 336 339 10 325 318 317 310 308 305 303 301 297 293 285 288 287 285 284 280 273 276 280 284 286 275 252 235 231 227
43 47 53 53 51 46 33 10 3 350 352 346 356 345 339 335 334 308 312 317 310 309 306 302 297 294 297 292 291 287 284 289 303 312 313 320 321 338 356 326 253 233 238
70 77 76 74 65 44 27 13 360 357 2 355 350 344 340 333 326 324 320 320 318 311 305 304 304 304 300 298 292 281 275 283 300 314 347 2 11 27 36 39 35 23 14
90 91 83 61 36 37 22 11 8 358 359 360 353 348 344 339 332 335 319 311 312 310 307 309 313 315 313 315 315 319 308 299 30 61 45 34 37 41 45 47 50 53 51
96 86 73 56 38 21 7 14 16 14 4 358 352 346 343 340 337 333 321 316 315 315 314 318 319 322 328 346 21 28 38 56 67 62 54 47 42 48 51 53 59 64 59
85 75 63 41 41 46 17 26 22 15 8 357 351 344 337 335 342 342 333 328 327 328 328 325 325 336 4 25 32 42 48 45 50 60 58 52 48 49 48 47 55 60 62
75 64 50 50 46 48 54 34 18 37 15 349 348 339 335 339 337 330 331 336 338 337 330 334 351 3 25 36 40 42 47 51 54 54 56 56 54 54 55 55 61 63 63
73 58 46 46 44 40 39 63 132 5 347 330 339 343 343 340 332 338 342 341 341 340 345 1 7 16 27 32 37 44 50 53 54 57 57 57 59 59 59 60 64 66 66
59 43 43 40 45 41 29 16 15 17 337 339 2 358 351 343 344 348 348 343 351 353 4 8 12 19 25 30 36 43 53 57 57 58 59 60 61 59 60 62 65 69 69
71 59 41 50 43 37 28 20 15 8 6 5 14 14 353 346 350 355 351 353 6 7 6 7 11 16 19 27 37 44 54 58 57 58 61 62 61 60 60 60 63 73 75
46 43 42 44 42 39 29 23 20 18 14 4 2 5 354 350 358 6 2 10 7 3 1 3 8 12 17 25 37 46 53 55 58 60 62 63 63 63 66 71 74 74 77
75 34 7 36 43 43 39 30 26 20 17 10 10 7 353 356 5 6 7 7 5 1 358 360 5 11 15 22 32 43 52 55 58 57 56 57 60 64 70 74 77 79 79
70 80 44 40 43 37 38 34 31 27 21 15 16 17 1 3 6 4 3 3 2 358 355 355 1 7 12 16 29 44 50 49 51 51 48 50 57 62 67 72 77 80 84
47 43 40 41 44 35 28 39 35 33 28 21 13 17 11 12 10 6 2 359 357 356 354 354 359 3 6 11 20 38 48 48 46 46 45 45 51 58 64 71 76 81 88
41 40 44 42 42 47 37 41 38 35 31 27 23 18 15 13 9 7 3 359 357 358 358 359 2 3 6 13 20 26 34 37 34 34 43 52 58 62 64 69 75 82 85
43 38 41 42 40 40 39 38 38 37 33 28 26 26 23 17 14 13 11 4 2 4 4 3 4 7 12 14 17 24 20 10 4 30 65 74 72 73 74 75 79 86 85
43 40 42 43 37 38 39 39 36 34 33 29 25 25 24 23 21 19 15 11 10 11 11 10 7 6 9 18 20 19 9 7 10 5 78 83 83 82 82 82 85 91 95
48 44 44 46 43 37 36 37 37 34 32 29 26 24 22 22 23 21 18 15 14 13 12 9 10 17 16 17 15 10 8 9 7 355 19 81 86 84 88 90 92 92 93